Time,TemperatureF,DewpointF,PressureIn,WindDirection,WindDirectionDegrees,WindSpeedMPH,WindSpeedGustMPH,Humidity,HourlyPrecipIn,Conditions,Clouds,dailyrainin,SoftwareType,DateUTC
2013-02-21 00:02:00,29.0,20.0,29.58,WNW,293,0.0,0.0,68,0.00,,,0.52,,2013-02-21 05:02:00,
2013-02-21 00:12:00,29.0,20.0,29.58,WNW,293,0.0,0.0,68,0.00,,,0.52,,2013-02-21 05:12:00,
2013-02-21 00:22:00,28.0,19.0,29.58,NW,315,0.0,0.0,68,0.00,,,0.50,,2013-02-21 05:22:00,
2013-02-21 00:35:00,28.0,18.0,29.58,NW,315,0.0,0.0,65,0.00,,,0.48,,2013-02-21 05:35:00,
2013-02-21 00:44:00,28.0,18.0,29.58,NW,315,0.0,0.0,65,0.00,,,0.48,,2013-02-21 05:44:00,
2013-02-21 01:00:00,28.0,18.0,29.59,West,270,0.0,0.0,66,0.00,,,0.46,,2013-02-21 06:00:00,
2013-02-21 01:11:00,28.0,18.0,29.59,SW,225,0.0,0.0,67,0.00,,,0.41,,2013-02-21 06:11:00,
2013-02-21 01:21:00,28.0,18.0,29.59,SW,225,0.0,0.0,67,0.00,,,0.41,,2013-02-21 06:21:00,
2013-02-21 01:31:00,28.0,18.0,29.60,NNW,338,0.0,0.0,66,0.00,,,0.39,,2013-02-21 06:31:00,
2013-02-21 01:41:00,28.0,18.0,29.60,WNW,293,0.0,0.0,66,0.00,,,0.36,,2013-02-21 06:41:00,
2013-02-21 01:51:00,28.0,18.0,29.60,WNW,293,0.0,0.0,66,0.00,,,0.36,,2013-02-21 06:51:00,
2013-02-21 02:01:00,28.0,18.0,29.60,NNW,338,0.0,0.0,65,0.00,,,0.34,,2013-02-21 07:01:00,
2013-02-21 02:11:00,28.0,18.0,29.60,NW,315,0.0,0.0,65,0.00,,,0.31,,2013-02-21 07:11:00,
2013-02-21 02:21:00,28.0,18.0,29.60,NW,315,0.0,0.0,65,0.00,,,0.31,,2013-02-21 07:21:00,
2013-02-21 02:32:00,28.0,18.0,29.60,NW,315,0.0,0.0,66,0.00,,,0.29,,2013-02-21 07:32:00,
2013-02-21 02:42:00,28.0,18.0,29.60,WNW,293,0.0,0.0,65,0.00,,,0.26,,2013-02-21 07:42:00,
2013-02-21 02:52:00,28.0,18.0,29.60,WNW,293,0.0,0.0,65,0.00,,,0.26,,2013-02-21 07:52:00,
2013-02-21 03:01:00,27.0,17.0,29.61,West,270,0.0,0.0,65,0.00,,,0.23,,2013-02-21 08:01:00,
2013-02-21 03:11:00,27.0,18.0,29.61,NW,315,0.0,0.0,67,0.00,,,0.21,,2013-02-21 08:11:00,
2013-02-21 03:21:00,27.0,18.0,29.61,NW,315,0.0,0.0,67,0.00,,,0.21,,2013-02-21 08:21:00,
2013-02-21 03:32:00,27.0,18.0,29.61,West,270,0.0,0.0,67,0.00,,,0.19,,2013-02-21 08:32:00,
2013-02-21 03:42:00,27.0,18.0,29.61,West,270,0.0,0.0,67,0.00,,,0.19,,2013-02-21 08:42:00,
2013-02-21 03:52:00,26.0,17.0,29.62,NW,315,0.0,0.0,67,0.00,,,0.17,,2013-02-21 08:52:00,
2013-02-21 04:01:00,26.0,17.0,29.62,NNW,338,0.0,0.0,69,0.00,,,0.15,,2013-02-21 09:01:00,
2013-02-21 04:11:00,26.0,17.0,29.62,NNW,338,0.0,0.0,69,0.00,,,0.15,,2013-02-21 09:11:00,
2013-02-21 04:22:00,26.0,17.0,29.61,NNW,338,0.0,0.0,68,0.00,,,0.13,,2013-02-21 09:22:00,
2013-02-21 04:32:00,26.0,16.0,29.62,WNW,293,0.0,0.0,65,0.00,,,0.11,,2013-02-21 09:32:00,
2013-02-21 04:42:00,26.0,16.0,29.62,NW,315,0.0,0.0,64,0.00,,,0.09,,2013-02-21 09:42:00,
2013-02-21 04:52:00,26.0,16.0,29.62,NW,315,0.0,0.0,64,0.00,,,0.09,,2013-02-21 09:52:00,
2013-02-21 05:01:00,26.0,16.0,29.62,NNW,338,0.0,0.0,64,0.00,,,0.07,,2013-02-21 10:01:00,
2013-02-21 05:11:00,26.0,16.0,29.62,NNW,338,0.0,0.0,64,0.00,,,0.07,,2013-02-21 10:11:00,
2013-02-21 05:21:00,25.0,15.0,29.63,NW,315,0.0,0.0,64,0.00,,,0.06,,2013-02-21 10:21:00,
2013-02-21 05:31:00,25.0,15.0,29.64,NW,315,0.0,0.0,64,0.00,,,0.05,,2013-02-21 10:31:00,
2013-02-21 05:41:00,25.0,15.0,29.64,NW,315,0.0,0.0,64,0.00,,,0.05,,2013-02-21 10:41:00,
2013-02-21 05:51:00,25.0,15.0,29.65,NW,315,0.0,0.0,64,0.00,,,0.03,,2013-02-21 10:51:00,
2013-02-21 06:01:00,25.0,14.0,29.64,NW,315,0.0,0.0,63,0.00,,,0.02,,2013-02-21 11:01:00,
2013-02-21 06:11:00,25.0,14.0,29.64,NW,315,0.0,0.0,63,0.00,,,0.02,,2013-02-21 11:11:00,
2013-02-21 06:21:00,24.0,14.0,29.65,NNW,338,0.0,0.0,64,0.00,,,0.01,,2013-02-21 11:21:00,
2013-02-21 06:31:00,24.0,14.0,29.66,NNW,338,0.0,0.0,64,0.00,,,0.01,,2013-02-21 11:31:00,
2013-02-21 06:41:00,24.0,14.0,29.66,NNW,338,0.0,0.0,64,0.00,,,0.01,,2013-02-21 11:41:00,
2013-02-21 06:52:00,23.0,13.0,29.67,NW,315,0.0,0.0,65,0.00,,,0.00,,2013-02-21 11:52:00,
2013-02-21 07:01:00,23.0,13.0,29.68,NNW,338,0.0,0.0,65,0.00,,,0.00,,2013-02-21 12:01:00,
2013-02-21 07:11:00,23.0,13.0,29.68,NW,315,0.0,0.0,66,0.00,,,0.00,,2013-02-21 12:11:00,
2013-02-21 07:21:00,23.0,13.0,29.68,NW,315,0.0,0.0,66,0.00,,,0.00,,2013-02-21 12:21:00,
2013-02-21 07:32:00,24.0,14.0,29.69,WNW,293,0.0,0.0,65,0.00,,,0.00,,2013-02-21 12:32:00,
2013-02-21 07:42:00,24.0,14.0,29.69,NW,315,0.0,0.0,64,0.00,,,0.00,,2013-02-21 12:42:00,
2013-02-21 07:53:00,24.0,14.0,29.69,NW,315,0.0,0.0,64,0.00,,,0.00,,2013-02-21 12:53:00,
2013-02-21 08:02:00,24.0,14.0,29.69,NW,315,0.0,0.0,65,0.00,,,0.00,,2013-02-21 13:02:00,
2013-02-21 08:12:00,24.0,14.0,29.69,NW,315,0.0,0.0,65,0.00,,,0.00,,2013-02-21 13:12:00,
2013-02-21 08:22:00,24.0,13.0,29.69,NW,315,0.0,0.0,63,0.00,,,0.00,,2013-02-21 13:22:00,
2013-02-21 08:32:00,25.0,13.0,29.69,NNW,338,0.0,0.0,61,0.00,,,0.00,,2013-02-21 13:32:00,
2013-02-21 08:42:00,25.0,13.0,29.70,WNW,293,0.0,0.0,61,0.00,,,0.00,,2013-02-21 13:42:00,
2013-02-21 08:52:00,25.0,13.0,29.70,WNW,293,0.0,0.0,61,0.00,,,0.00,,2013-02-21 13:52:00,
2013-02-21 09:02:00,26.0,14.0,29.70,North,0,0.0,0.0,60,0.00,,,0.00,,2013-02-21 14:02:00,
2013-02-21 09:11:00,26.0,14.0,29.70,North,0,0.0,0.0,60,0.00,,,0.00,,2013-02-21 14:11:00,
2013-02-21 09:22:00,25.0,13.0,29.69,NNW,338,0.0,0.0,59,0.00,,,0.00,,2013-02-21 14:22:00,
2013-02-21 09:32:00,26.0,14.0,29.70,NNW,338,0.0,0.0,59,0.00,,,0.00,,2013-02-21 14:32:00,
2013-02-21 09:42:00,26.0,14.0,29.70,NW,315,0.0,0.0,59,0.00,,,0.00,,2013-02-21 14:42:00,
2013-02-21 09:52:00,26.0,14.0,29.70,NW,315,0.0,0.0,59,0.00,,,0.00,,2013-02-21 14:52:00,
2013-02-21 10:01:00,27.0,14.0,29.70,NW,315,0.0,0.0,57,0.00,,,0.00,,2013-02-21 15:01:00,
2013-02-21 10:12:00,27.0,14.0,29.70,NW,315,0.0,0.0,57,0.00,,,0.00,,2013-02-21 15:12:00,
2013-02-21 10:21:00,28.0,14.0,29.70,NNW,338,0.0,0.0,54,0.00,,,0.00,,2013-02-21 15:21:00,
2013-02-21 10:32:00,29.0,14.0,29.70,North,0,0.0,0.0,54,0.00,,,0.00,,2013-02-21 15:32:00,
2013-02-21 10:42:00,29.0,14.0,29.70,North,0,0.0,0.0,54,0.00,,,0.00,,2013-02-21 15:42:00,
2013-02-21 10:52:00,30.0,15.0,29.69,NNW,338,0.0,0.0,53,0.00,,,0.00,,2013-02-21 15:52:00,
2013-02-21 11:01:00,30.0,16.0,29.69,North,0,0.0,0.0,55,0.00,,,0.00,,2013-02-21 16:01:00,
2013-02-21 11:12:00,30.0,15.0,29.70,NNW,338,0.0,0.0,53,0.00,,,0.00,,2013-02-21 16:12:00,
2013-02-21 11:22:00,30.0,15.0,29.70,NNW,338,0.0,0.0,53,0.00,,,0.00,,2013-02-21 16:22:00,
2013-02-21 11:32:00,28.0,15.0,29.70,NNE,23,0.0,0.0,57,0.00,,,0.00,,2013-02-21 16:32:00,
2013-02-21 11:42:00,27.0,14.0,29.70,North,0,0.0,0.0,58,0.00,,,0.00,,2013-02-21 16:42:00,
2013-02-21 11:52:00,27.0,14.0,29.70,North,0,0.0,0.0,58,0.00,,,0.00,,2013-02-21 16:52:00,
2013-02-21 12:01:00,29.0,16.0,29.70,NW,315,0.0,0.0,58,0.00,,,0.00,,2013-02-21 17:01:00,
2013-02-21 12:11:00,29.0,16.0,29.70,North,0,0.0,0.0,57,0.00,,,0.00,,2013-02-21 17:11:00,
2013-02-21 12:21:00,29.0,16.0,29.70,North,0,0.0,0.0,57,0.00,,,0.00,,2013-02-21 17:21:00,
2013-02-21 12:32:00,29.0,16.0,29.70,NNW,338,0.0,0.0,59,0.00,,,0.00,,2013-02-21 17:32:00,
2013-02-21 12:42:00,29.0,16.0,29.70,NNW,338,0.0,0.0,59,0.00,,,0.00,,2013-02-21 17:42:00,
2013-02-21 12:52:00,29.0,17.0,29.70,NNW,338,0.0,0.0,61,0.00,,,0.00,,2013-02-21 17:52:00,
2013-02-21 13:02:00,29.0,18.0,29.70,North,0,0.0,0.0,63,0.00,,,0.00,,2013-02-21 18:02:00,
2013-02-21 13:12:00,29.0,18.0,29.70,North,0,0.0,0.0,63,0.00,,,0.00,,2013-02-21 18:12:00,
2013-02-21 13:22:00,29.0,18.0,29.70,NNW,338,0.0,0.0,64,0.00,,,0.00,,2013-02-21 18:22:00,
2013-02-21 13:32:00,30.0,19.0,29.70,NNW,338,0.0,0.0,64,0.00,,,0.00,,2013-02-21 18:32:00,
2013-02-21 13:42:00,30.0,19.0,29.70,NNW,338,0.0,0.0,64,0.00,,,0.00,,2013-02-21 18:42:00,
2013-02-21 13:52:00,29.0,19.0,29.70,North,0,0.0,0.0,67,0.00,,,0.00,,2013-02-21 18:52:00,
2013-02-21 14:01:00,28.0,19.0,29.71,NNW,338,0.0,0.0,68,0.00,,,0.00,,2013-02-21 19:01:00,
2013-02-21 14:12:00,28.0,19.0,29.71,NNW,338,0.0,0.0,68,0.00,,,0.00,,2013-02-21 19:12:00,
2013-02-21 14:21:00,28.0,19.0,29.72,North,0,0.0,0.0,68,0.00,,,0.00,,2013-02-21 19:21:00,
2013-02-21 14:32:00,28.0,20.0,29.72,North,0,0.0,0.0,71,0.00,,,0.00,,2013-02-21 19:32:00,
2013-02-21 14:42:00,28.0,20.0,29.72,North,0,0.0,0.0,71,0.00,,,0.00,,2013-02-21 19:42:00,
2013-02-21 14:52:00,28.0,20.0,29.72,North,0,0.0,0.0,72,0.00,,,0.00,,2013-02-21 19:52:00,
2013-02-21 15:01:00,28.0,20.0,29.72,North,0,0.0,0.0,73,0.00,,,0.00,,2013-02-21 20:01:00,
2013-02-21 15:11:00,27.0,21.0,29.73,NW,315,0.0,0.0,77,0.00,,,0.00,,2013-02-21 20:11:00,
2013-02-21 15:21:00,27.0,21.0,29.73,NW,315,0.0,0.0,77,0.00,,,0.00,,2013-02-21 20:21:00,
2013-02-21 15:32:00,27.0,21.0,29.73,North,0,0.0,0.0,79,0.00,,,0.00,,2013-02-21 20:32:00,
2013-02-21 15:42:00,27.0,21.0,29.73,North,0,0.0,0.0,79,0.00,,,0.00,,2013-02-21 20:42:00,
2013-02-21 15:53:00,27.0,21.0,29.74,North,0,0.0,0.0,79,0.00,,,0.00,,2013-02-21 20:53:00,
2013-02-21 16:02:00,27.0,21.0,29.75,WNW,293,0.0,0.0,79,0.00,,,0.00,,2013-02-21 21:02:00,
2013-02-21 16:12:00,27.0,21.0,29.75,NNW,338,0.0,0.0,79,0.00,,,0.00,,2013-02-21 21:12:00,
2013-02-21 16:22:00,27.0,21.0,29.75,NNW,338,0.0,0.0,79,0.00,,,0.00,,2013-02-21 21:22:00,
2013-02-21 16:32:00,27.0,21.0,29.76,WNW,293,0.0,0.0,79,0.00,,,0.00,,2013-02-21 21:32:00,
2013-02-21 16:42:00,28.0,22.0,29.77,North,0,0.0,0.0,78,0.00,,,0.00,,2013-02-21 21:42:00,
2013-02-21 16:52:00,28.0,22.0,29.77,North,0,0.0,0.0,78,0.00,,,0.00,,2013-02-21 21:52:00,
2013-02-21 17:01:00,28.0,22.0,29.78,North,0,0.0,0.0,78,0.00,,,0.00,,2013-02-21 22:01:00,
2013-02-21 17:11:00,28.0,22.0,29.78,North,0,0.0,0.0,78,0.00,,,0.00,,2013-02-21 22:11:00,
2013-02-21 17:21:00,28.0,22.0,29.79,WNW,293,0.0,0.0,78,0.00,,,0.00,,2013-02-21 22:21:00,
2013-02-21 17:32:00,28.0,22.0,29.80,NNW,338,0.0,0.0,78,0.00,,,0.00,,2013-02-21 22:32:00,
2013-02-21 17:42:00,28.0,22.0,29.81,North,0,0.0,0.0,79,0.00,,,0.00,,2013-02-21 22:42:00,
2013-02-21 17:52:00,28.0,22.0,29.81,North,0,0.0,0.0,79,0.00,,,0.00,,2013-02-21 22:52:00,
2013-02-21 18:01:00,29.0,23.0,29.81,NNW,338,0.0,0.0,78,0.00,,,0.00,,2013-02-21 23:01:00,
2013-02-21 18:11:00,29.0,23.0,29.81,NNW,338,0.0,0.0,78,0.00,,,0.00,,2013-02-21 23:11:00,
2013-02-21 18:21:00,29.0,23.0,29.82,North,0,0.0,0.0,78,0.00,,,0.00,,2013-02-21 23:21:00,
2013-02-21 18:32:00,29.0,23.0,29.83,NNW,338,0.0,0.0,78,0.00,,,0.00,,2013-02-21 23:32:00,
2013-02-21 18:42:00,29.0,23.0,29.83,NNW,338,0.0,0.0,78,0.00,,,0.00,,2013-02-21 23:42:00,
2013-02-21 18:52:00,30.0,24.0,29.85,NNW,338,0.0,0.0,78,0.00,,,0.00,,2013-02-21 23:52:00,
2013-02-21 19:01:00,30.0,24.0,29.85,North,0,0.0,0.0,78,0.00,,,0.00,,2013-02-22 00:01:00,
2013-02-21 19:11:00,30.0,24.0,29.85,North,0,0.0,0.0,78,0.00,,,0.00,,2013-02-22 00:11:00,
2013-02-21 19:22:00,30.0,24.0,29.87,NNW,338,0.0,0.0,79,0.00,,,0.00,,2013-02-22 00:22:00,
2013-02-21 19:32:00,30.0,24.0,29.88,NNW,338,0.0,0.0,79,0.00,,,0.00,,2013-02-22 00:32:00,
2013-02-21 19:42:00,30.0,24.0,29.88,NNW,338,0.0,0.0,79,0.00,,,0.00,,2013-02-22 00:42:00,
2013-02-21 19:52:00,32.0,27.0,29.90,North,0,0.0,0.0,81,0.00,,,0.00,,2013-02-22 00:52:00,
2013-02-21 20:01:00,33.0,28.0,29.91,NNE,23,0.0,0.0,80,0.00,,,0.00,,2013-02-22 01:01:00,
2013-02-21 20:11:00,33.0,28.0,29.91,NNE,23,0.0,0.0,80,0.00,,,0.00,,2013-02-22 01:11:00,
2013-02-21 20:21:00,34.0,28.0,29.92,North,0,0.0,0.0,80,0.00,,,0.00,,2013-02-22 01:21:00,
2013-02-21 20:32:00,33.0,27.0,29.93,NW,315,0.0,0.0,78,0.00,,,0.00,,2013-02-22 01:32:00,
2013-02-21 20:42:00,33.0,27.0,29.93,NW,315,0.0,0.0,78,0.00,,,0.00,,2013-02-22 01:42:00,
2013-02-21 20:52:00,32.0,27.0,29.95,North,0,0.0,0.0,80,0.00,,,0.00,,2013-02-22 01:52:00,
2013-02-21 21:02:00,33.0,28.0,29.96,North,0,0.0,0.0,80,0.00,,,0.00,,2013-02-22 02:02:00,
2013-02-21 21:11:00,34.0,28.0,29.97,North,0,0.0,0.0,78,0.00,,,0.00,,2013-02-22 02:11:00,
2013-02-21 21:21:00,34.0,28.0,29.97,North,0,0.0,0.0,78,0.00,,,0.00,,2013-02-22 02:21:00,
2013-02-21 21:32:00,34.0,28.0,29.98,NE,45,0.0,0.0,77,0.00,,,0.00,,2013-02-22 02:32:00,
2013-02-21 21:42:00,34.0,28.0,29.99,NNE,23,0.0,0.0,77,0.00,,,0.00,,2013-02-22 02:42:00,
2013-02-21 21:52:00,34.0,28.0,29.99,NNE,23,0.0,0.0,77,0.00,,,0.00,,2013-02-22 02:52:00,
2013-02-21 22:02:00,35.0,28.0,30.00,NNE,23,0.0,0.0,76,0.00,,,0.00,,2013-02-22 03:02:00,
2013-02-21 22:11:00,35.0,28.0,30.00,North,0,0.0,0.0,76,0.00,,,0.00,,2013-02-22 03:11:00,
2013-02-21 22:21:00,35.0,28.0,30.00,North,0,0.0,0.0,76,0.00,,,0.00,,2013-02-22 03:21:00,
2013-02-21 22:32:00,35.0,28.0,30.01,NE,45,0.0,0.0,74,0.00,,,0.00,,2013-02-22 03:32:00,
2013-02-21 22:42:00,35.0,28.0,30.01,NE,45,0.0,0.0,74,0.00,,,0.00,,2013-02-22 03:42:00,
2013-02-21 22:51:00,35.0,27.0,30.02,North,0,0.0,0.0,73,0.00,,,0.00,,2013-02-22 03:51:00,
2013-02-21 23:02:00,35.0,28.0,30.03,NNE,23,0.0,0.0,74,0.00,,,0.00,,2013-02-22 04:02:00,
2013-02-21 23:11:00,34.0,27.0,30.04,North,0,0.0,0.0,75,0.00,,,0.00,,2013-02-22 04:11:00,
2013-02-21 23:21:00,34.0,27.0,30.04,North,0,0.0,0.0,75,0.00,,,0.00,,2013-02-22 04:21:00,
2013-02-21 23:32:00,34.0,27.0,30.04,North,0,0.0,0.0,75,0.00,,,0.00,,2013-02-22 04:32:00,
2013-02-21 23:42:00,34.0,27.0,30.06,NNE,23,0.0,0.0,74,0.00,,,0.00,,2013-02-22 04:42:00,
2013-02-21 23:51:00,34.0,27.0,30.06,NNE,23,0.0,0.0,74,0.00,,,0.00,,2013-02-22 04:51:00,